Flag for Australia Weather past 2 weeks in Macquarie Island, Tasmania, Australia

Now
39 °F

Low clouds.


Feels Like: 28 °F
Forecast: 40 / 42 °F
Wind: 26 mph from West

Location: Macquarie Island

Current Time: Aug 28, 2014 at 2:25:56 PM

Latest Report: Aug 28, 2014 at 1:00 PM


Visibility: 19 mi

Pressure: 30.34 "Hg

Humidity: 90%

Dew point: 36 °F

Location of Macquarie IslandLocation

Historic Weather in Macquarie Island — Graph

°F

Macquarie Island temperature yesterday

Maximum temperature yesterday: 44 °F (at 11:00 AM)
Minimum temperature yesterday: 37 °F (at 11:00 PM)
Average temperature yesterday: 42 °F

Past Weeks' High & Low Weather Summary

 TemperatureHumidityPressure
High44 °F (Aug 23, 11:00 AM)97% (Aug 24, 1:00 AM)30.34 "Hg (Aug 24, 1:00 AM)
Low31 °F (Aug 20, 4:00 PM)53% (Aug 20, 8:00 PM)29.09 "Hg (Aug 13, 4:00 PM)
Average40 °F86%29.77 "Hg
* Reported Aug 13 1:00 PM — Aug 28 1:00 PM, Macquarie Island, Weather by CustomWeather, © 2014

Note: Actual official high and low records may vary slightly from our data, if they occured in-between our weather recording intervals... More about our weather records

Advertising

Macquarie Island weather history for previous 24 hours

 ConditionsComfort  
Time TempWeatherWind HumidityBarometerVisibility
1:00 PM
Aug 28
39 °FLow clouds.26 mph90%30.34 "Hg19 mi
11:00 AM38 °FChilly.23 mph91%30.33 "HgN/A
10:00 AM38 °FLow clouds.24 mph91%30.33 "Hg19 mi
8:00 AM36 °FChilly.20 mph94%30.29 "HgN/A
7:00 AM36 °FChilly.21 mph93%30.29 "HgN/A
5:00 AM36 °FChilly.20 mph90%30.25 "HgN/A
4:00 AM36 °FChilly.18 mph90%30.26 "HgN/A
2:00 AM36 °FChilly.17 mph88%30.23 "HgN/A
1:00 AM36 °FChilly.21 mph87%30.21 "HgN/A
11:00 PM
Aug 27
37 °FChilly.20 mph84%30.16 "HgN/A
10:00 PM38 °FPassing clouds.23 mph85%30.12 "Hg16 mi
8:00 PM39 °FChilly.15 mph86%30.08 "HgN/A
7:00 PM39 °FFog.10 mph88%30.03 "Hg6 mi
5:00 PM41 °FQuite cool.23 mph92%29.95 "HgN/A
4:00 PM42 °FLight rain. Low clouds.23 mph94%29.90 "Hg7 mi
2:00 PM43 °FQuite cool.33 mph96%29.84 "HgN/A
Weather by CustomWeather, © 2014

See weather overviewHow to use our weather pages